Home   Weather   Marigot   Past weeks

Past Weather in Marigot, Saint Martin — Yesterday and Last 2 Weeks

Now
81 °F

Passing clouds.


Feels Like: 85 °F
Forecast: 78 / 86 °F
Wind: 5 mph from East

Location: Juliana Airport - Saint Maarten

Current Time: Dec 4, 2016 at 2:09:57 am

Latest Report: Dec 4, 2016 at 1:00 am


Visibility: N/A

Pressure: 29.95 "Hg

Humidity: 79%

Dew Point: 73 °F

Location of MarigotLocation

Past Weather in Marigot — Graph

°F

Marigot Temperature Yesterday

Maximum temperature yesterday: 84 °F (at 10:00 am)
Minimum temperature yesterday: 81 °F (at 12:00 am)
Average temperature yesterday: 82 °F

High & Low Weather Summary for the Past Weeks

 TemperatureHumidityPressure
High86 °F (Nov 19, 11:00 am)100% (Nov 20, 7:00 pm)30.04 "Hg (Nov 20, 7:00 pm)
Low72 °F (Nov 28, 1:00 pm)62% (Nov 25, 11:00 am)29.71 "Hg (Nov 28, 5:00 pm)
Average81 °F81%29.90 "Hg
* Reported Nov 19 1:00 am — Dec 4 1:00 am, Marigot, Weather by CustomWeather, © 2016

Note: Actual official high and low records may vary slightly from our data, if they occured in-between our weather recording intervals... More about our weather records

Advertising

Marigot Weather History for the Previous 24 Hours

Scroll right to see more
 ConditionsComfort  
Time TempWeatherWind HumidityBarometerVisibility
1:00 am
Sun, Dec 4
81 °FPassing clouds.5 mph79%29.95 "HgN/A
12:00 am79 °FPassing clouds.8 mph84%29.98 "HgN/A
11:00 pm
Sat, Dec 3
81 °FPassing clouds.7 mph79%29.98 "HgN/A
10:00 pm81 °FPassing clouds.5 mph79%29.98 "HgN/A
9:00 pm81 °FPassing clouds.6 mph79%29.98 "HgN/A
8:00 pm81 °FPassing clouds.6 mph79%29.98 "HgN/A
7:00 pm81 °FPassing clouds.5 mph79%29.95 "HgN/A
6:00 pm81 °FPassing clouds.5 mph79%29.95 "HgN/A
5:00 pm84 °FScattered clouds.8 mph70%29.92 "HgN/A
4:00 pm84 °FScattered clouds.8 mph66%29.92 "HgN/A
3:00 pm84 °FScattered clouds.6 mph70%29.95 "HgN/A
2:00 pm84 °FScattered clouds.8 mph66%29.95 "HgN/A
1:00 pm84 °FPassing clouds.10 mph66%29.95 "HgN/A
11:00 am84 °FPassing clouds.10 mph70%30.01 "HgN/A
10:00 am84 °FPassing clouds.9 mph70%30.01 "HgN/A
9:00 am82 °FPassing clouds.12 mph74%29.98 "HgN/A
8:00 am82 °FPassing clouds.9 mph74%29.98 "HgN/A
7:00 am81 °FPassing clouds.9 mph79%29.95 "HgN/A
6:00 am81 °FPassing clouds.9 mph79%29.95 "HgN/A
5:00 am81 °FPassing clouds.12 mph79%29.95 "HgN/A
4:00 am81 °FPassing clouds.9 mph79%29.95 "HgN/A
3:00 am81 °FPassing clouds.10 mph79%29.95 "HgN/A
2:00 am81 °FPassing clouds.9 mph84%29.95 "HgN/A
Weather by CustomWeather, © 2016

See weather overviewHow to use our weather pages